Location: Newark
(54.4000°N, 32.4500°E)
Time: 01:59:13
(UTC+00:00)

Envisat - Pass Details

Date: 22 January 2020
Orbit: 764 x 766 km, 98.1° (Epoch: 21 February)

Event Time Altitude Azimuth Distance (km) Brightness Sun altitude
Rises 03:00:47 0° 27° (NNE) 3,247 6.6 -24.8°
Reaches altitude 10° 03:04:23 10° 54° (NE) 2,313 6.2 -24.3°
Maximum altitude 03:06:52 14° 83° (E) 2,072 6.2 -23.9°
Drops below altitude 10° 03:09:20 10° 113° (ESE) 2,304 6.4 -23.5°
Sets 03:12:54 0° 139° (SE) 3,224 6.9 -23.0°
